Location: *
(50.6089°N, 2.2719°E)
Time: 19:35:40
(UTC+00:00)

BREEZE-M DEB (TANK) - Pass Details

Date: 18 October 2019
Orbit: 305 x 13127 km, 49.6° (Epoch: 12 November)

Event Time Altitude Azimuth Distance (km) Brightness Sun altitude
Rises 18:34:47 0° 231° (SW) 3,852 7.8 -16.8°
Reaches altitude 10° 18:38:38 10° 220° (SW) 1,993 6.1 -17.4°
Enters shadow 18:41:37 25° 169° (S) 846 3.6 -17.9°
